Home   Weather   Tashkent   Past weeks

Flag for Uzbekistan Past Weather in Tashkent, Uzbekistan — Yesterday and Last 2 Weeks

45 °F


Feels Like: 45 °F
Forecast: 33 / 61 °F
Wind: 2 mph from East

Location: Tashkent

Current Time: Oct 26, 2016 at 11:01:32 AM

Latest Report: Oct 26, 2016 at 10:00 AM

Visibility: 4 mi

Pressure: 30.60 "Hg

Humidity: 57%

Dew Point: 30 °F

Location of TashkentLocation

Past Weather in Tashkent — Graph


Tashkent Temperature Yesterday

Maximum temperature yesterday: 46 °F (at 1:00 PM)
Minimum temperature yesterday: 37 °F (at 11:30 PM)
Average temperature yesterday: 42 °F

High & Low Weather Summary for the Past Weeks

High82 °F (Oct 11, 3:00 PM)100% (Oct 13, 8:00 PM)30.60 "Hg (Oct 13, 8:00 PM)
Low32 °F (Oct 19, 7:30 AM)15% (Oct 11, 3:00 PM)29.89 "Hg (Oct 11, 3:00 PM)
Average49 °F63%30.23 "Hg
* Reported Oct 11 9:00 AM — Oct 26 9:30 AM, Tashkent, Weather by CustomWeather, © 2016

Note: Actual official high and low records may vary slightly from our data, if they occured in-between our weather recording intervals... More about our weather records


Tashkent Weather History for the Previous 24 Hours

Scroll right to see more
Time TempWeatherWind HumidityBarometerVisibility
9:30 AM
Wed, Oct 26
45 °FClear.2 mph57%30.60 "Hg4 mi
9:00 AM41 °FClear.2 mph70%30.60 "Hg4 mi
8:30 AM39 °FFog.2 mph70%30.60 "Hg3 mi
8:00 AM36 °FFog.3 mph81%30.57 "Hg3 mi
7:30 AM34 °FFog.3 mph87%30.57 "Hg3 mi
7:00 AM36 °FFog.3 mph81%30.57 "Hg2 mi
6:30 AM36 °FFog.5 mph81%30.57 "Hg2 mi
6:00 AM34 °FFog.5 mph81%30.57 "Hg2 mi
5:30 AM34 °FFog.5 mph81%30.57 "Hg2 mi
5:00 AM34 °FFog.5 mph87%30.54 "Hg2 mi
4:30 AM36 °FFog.3 mph81%30.54 "Hg2 mi
4:00 AM36 °FFog.3 mph81%30.54 "Hg2 mi
3:30 AM36 °FFog.6 mph81%30.54 "Hg2 mi
3:00 AM36 °FFog.6 mph81%30.54 "Hg2 mi
2:30 AM36 °FFog.5 mph81%30.54 "Hg2 mi
2:00 AM37 °FFog.5 mph81%30.54 "Hg2 mi
1:30 AM36 °FFog.3 mph81%30.51 "Hg2 mi
1:00 AM37 °FFog.5 mph75%30.51 "Hg2 mi
12:30 AM36 °FFog.5 mph81%30.51 "Hg2 mi
12:00 AM37 °FClear.5 mph70%30.51 "Hg2 mi
11:30 PM
Tue, Oct 25
37 °FClear.5 mph70%30.51 "Hg2 mi
11:00 PM39 °FClear.5 mph65%30.51 "Hg2 mi
10:30 PM39 °FClear.6 mph65%30.51 "Hg2 mi
10:00 PM41 °FClear.6 mph61%30.51 "Hg2 mi
9:30 PM41 °FClear.2 mph57%30.51 "Hg10 mi
9:00 PM41 °FClear.1 mph57%30.51 "Hg10 mi
8:30 PM43 °FPassing clouds.3 mph53%30.51 "HgN/A
8:00 PM43 °FClear.2 mph53%30.48 "Hg10 mi
7:30 PM43 °FClear.3 mph53%30.48 "Hg10 mi
7:00 PM43 °FClear.2 mph53%30.48 "Hg10 mi
6:30 PM43 °FClear.3 mph49%30.48 "Hg10 mi
6:00 PM45 °FClear.5 mph46%30.48 "Hg10 mi
5:30 PM45 °FClear.5 mph46%30.48 "Hg10 mi
5:00 PM45 °FSunny.6 mph46%30.48 "Hg10 mi
4:30 PM45 °FPassing clouds.6 mph46%30.45 "HgN/A
4:00 PM46 °FPassing clouds.3 mph43%30.45 "HgN/A
3:30 PM46 °FPassing clouds.5 mph43%30.45 "HgN/A
3:00 PM46 °FSunny.5 mph43%30.45 "Hg10 mi
2:30 PM45 °FPassing clouds.6 mph42%30.45 "HgN/A
2:00 PM45 °FPassing clouds.6 mph37%30.45 "HgN/A
1:30 PM45 °FPassing clouds.6 mph39%30.45 "HgN/A
1:00 PM46 °FPassing clouds.6 mph43%30.42 "HgN/A
12:30 PM45 °FSunny.3 mph39%30.45 "Hg10 mi
12:00 PM45 °FPassing clouds.5 mph39%30.42 "HgN/A
11:30 AM45 °FSunny.5 mph34%30.42 "Hg10 mi
11:00 AM43 °FSunny.3 mph34%30.42 "Hg10 mi
Weather by CustomWeather, © 2016

See weather overviewHow to use our weather pages